Regional Weather Roundup
Issued by NWS New Orleans/Baton Rouge, LA

Home | Current Version | Previous Version | Text Only | Print | Product List | Glossary Off
Versions: 1 2 3 4 5 6 7 8 9 10 11 12 13 14 15 16 17 18 19 20 21 22 23 24 25 26 27 28 29 30 31 32 33 34 35 36 37 38 39 40 41 42 43 44 45 46 47 48 49 50

030
ASUS44 KLIX 312111
RWRLIX
NEW ORLEANS REGIONAL WEATHER ROUNDUP
NATIONAL WEATHER SERVICE NEW ORLEANS LA
400 PM CDT TUE MAR 31 2015

NOTE: "FAIR" INDICATES FEW OR NO CLOUDS BELOW 12,000 FEET WITH NO
      SIGNIFICANT WEATHER AND/OR OBSTRUCTIONS TO VISIBILITY.
      SKY/WX - SKY CONDITION AND SIGNIFICANT WEATHER.
      TMP - AIR TEMPERATURE.     DP    - DEWPOINT TEMPERATURE.
      RH  - RELATIVE HUMIDITY.   PRES  - PRESSURE.
      HI  - HEAT INDEX.          WCI   - WIND CHILL INDEX.

*  THESE STATIONS ARE NOT NWS OR FAA STATIONS AND ARE NOT UNDER
   NWS QUALITY CONTROL.

LAZ038-040-048-061>063-065>067-069-312200-
SOUTHEAST LOUISIANA

CITY           SKY/WX    TMP DP  RH WIND       PRES   REMARKS
N.O. AUDUBON     N/A     84  69  61 MISG        N/A
N.O. INTL ARPT PTSUNNY   81  60  48 W20       30.03F
N.O. LAKEFRONT PTSUNNY   80  63  55 W9        30.04F
SLIDELL        MOSUNNY   81  61  50 W10G18    30.02F
BATON ROUGE    MOSUNNY   80  60  50 SW16G22   30.02F
BOOTHVILLE     MOSUNNY   78  66  66 SW12      30.08F
BELLE CHASSE   PTSUNNY   79  61  53 SW20      30.03F
BOGALUSA*        N/A     84  57  39 SW10G20   30.03F
GALLIANO*      PTCLDY    81  64  55 MISG      30.07F
NEW ROADS*     MOCLDY    79  59  50 SW10      30.02F
GONZALES*        N/A     80  60  50 S9G20     30.03F
HAMMOND*       PTSUNNY   82  55  39 SW14      30.04F
HOUMA*         PTSUNNY   79  64  61 SW17      30.06F
PORT FOURCHON* PTCLDY    79  64  61 SW12      30.10F

$$

MSZ070-080>082-312200-
SOUTHERN MISSISSIPPI

CITY           SKY/WX    TMP DP  RH WIND       PRES   REMARKS
MCCOMB         PTSUNNY   80  58  46 SW10      30.01F
GULFPORT       SUNNY     78  65  63 S8        30.03F
BILOXI         SUNNY     77  67  71 S13       30.03F
PASCAGOULA     SUNNY     78  65  63 S13G21    30.04F
STENNIS ARPT*  MOSUNNY   82  55  39 MISG      30.03F

$$

COASTAL OBSERVATIONS
LAKE AND NEARSHORE STATIONS

STATION/POSITION TIME  TEMP    WIND        PRES    WAVE
                       AIR SEA DIR/SP/G            HT/PER
                 (UTC) (F)     (DEG/KT/KT) (MB)    (FT/S)
PASCAGOULA       2000   74     210/ 12/ 14 1017.8
WAVELAND YACHT   2000   77 69  200/ 11/ 15 1017.8
GRAND ISLE       2000   76 71  250/  9/ 13 1018.9
SOUTHWEST PASS   2000   79 56  260/  6/  8 1019.8
NEW CANAL        2000   80     250/  9/ 15 1018.2
SHELL BEACH      2000   78 72  210/ 18/ 23 1018.0

OFFSHORE STATIONS

STATION/POSITION TIME  TEMP    WIND        PRES    WAVE
                       AIR SEA DIR/SP/G            HT/PER
                 (UTC) (F)     (DEG/KT/KT) (MB)    (FT/S)
64 S DAUPHIN ISL 2050   73 73  230/  8/ 10 1018.8    2/ 7

$$




USA.gov is the U.S. government's official web portal to all federal, state and local government web resources and services.